Weather History for PHKO - June, 2012

Change the Weather History Date:

Tuesday, June 5, 2012

  Actual Average Record
Temperature  
Mean Temperature 78 °F -  
Max Temperature 84 °F 81 °F 91 °F (1983)
Min Temperature 72 °F 72 °F 68 °F (1985)
Cooling Degree Days 13    
Growing Degree Days 28 (Base 50)    
Moisture  
Dew Point 64 °F    
Average Humidity 61    
Maximum Humidity 71    
Minimum Humidity 44    
Precipitation  
Precipitation 0.00 in - - ()
Sea Level Pressure  
Sea Level Pressure 30.03 in    
Wind  
Wind Speed 7 mph (SSW)    
Max Wind Speed 13 mph    
Max Gust Speed -    
Visibility 10 miles    
Events      
Averages and records for this station are not official NWS values.
T = Trace of Precipitation, MM = Missing Value Source: NWS Daily Summary

Daily Weather History Graph

Daily Weather History Graph

Search for Another Location

Airport or City:

Trip Planner

Search our weather history database for the weather conditions in past years. The results will help you decide how hot, cold, wet, or windy it might be!

Date:

Astronomy

Jun. 05, 2012 Rise Set
Actual Time 5:44 AM HST 7:01 PM HST
Civil Twilight 5:20 AM HST 7:25 PM HST
Nautical Twilight 4:51 AM HST 7:54 PM HST
Astronomical Twilight 4:21 AM HST 8:24 PM HST
Moon 8:41 PM HST (6/5) 7:05 AM HST (6/5)
Length of Visible Light 14h 05m
Length of Day
13h 16m
Full, 97% of the Moon is Illuminated
Jun 5
Full
Jun 11
Last Quarter
Jun 19
New
Jun 26
First Quarter
Jul 3
Full

Hourly Weather History & Observations

Time (HST) Temp. Heat Index Dew Point Humidity Pressure Visibility Wind Dir Wind Speed Gust Speed Precip Events Conditions
12:53 AM 75.9 °F - 61.0 °F 60% 30.04 in 10.0 mi ENE 10.4 mph - N/A   Mostly Cloudy
1:53 AM 75.0 °F - 61.0 °F 62% 30.02 in 10.0 mi NNE 5.8 mph - N/A   Clear
2:53 AM 73.9 °F - 61.0 °F 64% 30.01 in 10.0 mi NNE 3.5 mph - N/A   Mostly Cloudy
3:53 AM 73.0 °F - 60.1 °F 64% 30.01 in 10.0 mi Calm Calm - N/A   Clear
4:53 AM 72.0 °F - 61.0 °F 68% 30.01 in 10.0 mi Calm Calm - N/A   Clear
5:53 AM 72.0 °F - 62.1 °F 71% 30.02 in 10.0 mi East 4.6 mph - N/A   Clear
6:53 AM 75.0 °F - 63.0 °F 66% 30.04 in 10.0 mi East 5.8 mph - N/A   Clear
7:53 AM 77.0 °F - 66.0 °F 69% 30.04 in 10.0 mi Calm Calm - N/A   Partly Cloudy
8:53 AM 78.1 °F - 66.0 °F 66% 30.05 in 10.0 mi WSW 6.9 mph - N/A   Scattered Clouds
9:53 AM 79.0 °F - 66.9 °F 66% 30.05 in 10.0 mi WSW 6.9 mph - N/A   Scattered Clouds
10:53 AM 81.0 °F 83.3 °F 66.9 °F 62% 30.05 in 10.0 mi West 10.4 mph - N/A   Clear
11:53 AM 82.9 °F 84.6 °F 64.9 °F 54% 30.04 in 10.0 mi WSW 9.2 mph - N/A   Clear
12:53 PM 82.9 °F 84.6 °F 64.9 °F 54% 30.04 in 10.0 mi SW 12.7 mph - N/A   Partly Cloudy
1:53 PM 84.0 °F 85.8 °F 64.9 °F 53% 30.02 in 10.0 mi SSW 11.5 mph - N/A   Scattered Clouds
2:53 PM 84.0 °F 84.5 °F 62.1 °F 47% 30.01 in 10.0 mi SSW 11.5 mph - N/A   Clear
3:53 PM 84.9 °F 85.0 °F 61.0 °F 44% 30.00 in 10.0 mi South 12.7 mph - N/A   Clear
4:53 PM 82.0 °F 83.4 °F 64.0 °F 54% 30.00 in 10.0 mi South 12.7 mph - N/A   Clear
5:53 PM 82.0 °F 83.1 °F 63.0 °F 52% 30.01 in 10.0 mi South 10.4 mph - N/A   Mostly Cloudy
6:53 PM 80.1 °F 82.3 °F 66.9 °F 64% 30.02 in 10.0 mi South 11.5 mph - N/A   Overcast
7:53 PM 79.0 °F - 66.9 °F 66% 30.04 in 10.0 mi South 9.2 mph - N/A   Overcast
8:53 PM 79.0 °F - 66.0 °F 64% 30.05 in 10.0 mi West 5.8 mph - N/A   Overcast
9:53 PM 78.1 °F - 66.0 °F 66% 30.06 in 10.0 mi SW 5.8 mph - N/A   Clear
10:53 PM 78.1 °F - 66.9 °F 68% 30.06 in 10.0 mi East 5.8 mph - N/A   Mostly Cloudy
11:53 PM 77.0 °F - 66.9 °F 71% 30.05 in 10.0 mi West 10.4 mph - N/A   Overcast